Home   Weather   Pomona   Past weeks
Flag for USA

Past Weather in Pomona, California, USA — Yesterday and Last 2 Weeks

Now
66 °F

Clear.


Feels Like: 66 °F
Forecast: 90 / 68 °F
Wind: No wind

Location: Chino Airport

Current Time: Oct 23, 2019 at 10:24:46 pm

Latest Report: Oct 23, 2019 at 9:53 pm


Visibility: 9 mi

Pressure: 29.88 "Hg

Humidity: 45%

Dew Point: 44 °F

Location of PomonaLocation

Past Weather in Pomona — Graph

°F

Pomona Temperature Yesterday

Maximum temperature yesterday: 97 °F (at 2:53 pm)
Minimum temperature yesterday: 56 °F (at 6:53 am)
Average temperature yesterday: 74 °F

High & Low Weather Summary for the Past Weeks

 TemperatureHumidityPressure
High97 °F (Oct 22, 2:53 pm)97% (Oct 9, 6:53 am)30.11 "Hg (Oct 9, 6:53 am)
Low45 °F (Oct 12, 5:53 am)4% (Oct 10, 3:53 pm)29.74 "Hg (Oct 17, 3:53 pm)
Average68 °F49%29.90 "Hg
* Reported Oct 8 8:53 pm — Oct 23 8:53 pm, Pomona. Weather by CustomWeather, © 2019

Note: Actual official high and low records may vary slightly from our data, if they occured in-between our weather recording intervals... More about our weather records

Advertising

Pomona Weather History for the Previous 24 Hours

Scroll right to see more
 ConditionsComfort  
Time TempWeatherWind HumidityBarometerVisibility
8:53 pm
Wed, Oct 23
70 °FClear.5 mph38%29.87 "Hg10 mi
7:53 pm74 °FClear.3 mph32%29.86 "Hg10 mi
6:53 pm76 °FPassing clouds.3 mph30%29.84 "Hg10 mi
5:53 pm82 °FPassing clouds.7 mph21%29.82 "Hg10 mi
4:53 pm90 °FSunny.13 mph15%29.83 "Hg10 mi
3:53 pm94 °FSunny.12 mph14%29.83 "Hg10 mi
2:53 pm97 °FSunny.9 mph10%29.82 "Hg10 mi
1:53 pm96 °FSunny.3 mph9%29.83 "Hg10 mi
12:53 pm92 °FSunny.No wind13%29.87 "Hg10 mi
11:53 am87 °FSunny.No wind17%29.90 "Hg10 mi
10:53 am80 °FSunny.3 mph21%29.93 "Hg10 mi
9:53 am74 °FSunny.No wind28%29.94 "Hg10 mi
8:53 am67 °FSunny.No wind37%29.95 "Hg10 mi
7:53 am56 °FSunny.No wind72%29.93 "Hg10 mi
6:53 am53 °FClear.No wind61%29.93 "Hg10 mi
5:53 am52 °FClear.No wind66%29.93 "Hg6 mi
4:53 am51 °FClear.No wind71%29.92 "Hg9 mi
3:53 am58 °FClear.3 mph54%29.92 "Hg8 mi
2:53 am58 °FClear.No wind58%29.94 "Hg8 mi
1:53 am59 °FClear.No wind54%29.96 "Hg9 mi
12:53 am59 °FClear.No wind56%29.96 "Hg6 mi
11:53 pm
Tue, Oct 22
61 °FClear.No wind50%29.97 "Hg7 mi
10:53 pm65 °FClear.No wind40%29.98 "Hg8 mi
Weather by CustomWeather, © 2019

See weather overview